This demonstration page uses our WeatherBlox Daily Observations layout. Learn more.

Left ArrowRight Arrow

47.50024, -111.30081

Hourly Observations for May 21, 2019

Temp ( °F °C ) Dew Point ( °F °C ) Humidity (%) Winds ( mph kmh ) Pressure ( in mb ) Visibility ( mi km ) Precip ( " mm )
12:53 am 00:53 Cloudy 41 5 37 2.8 86 86 E 9 15 29.85 1011 10 16 0.00 0.00
1:53 am 01:53 Cloudy 41 5 38 3.3 89 89 ENE 7 11 29.83 1010 10 16 0.00 0.00
2:53 am 02:53 Cloudy 40 4.4 38 3.3 93 93 ENE 7 11 29.83 1010 10 16 0.00 0.00
3:53 am 03:53 Mostly Clear 36 2.2 36 2.2 100 100 E 5 7 29.84 1011 10 16 0.00 0.00
4:53 am 04:53 Mostly Clear 35 1.7 35 1.7 100 100 E 6 9 29.84 1010 10 16 0.00 0.00
5:53 am 05:53 Cloudy 38 3.3 37 2.8 97 97 E 7 11 29.83 1010 10 16 0.00 0.00
6:53 am 06:53 Cloudy 39 3.9 37 2.8 93 93 E 13 20 29.83 1010 10 16 0.00 0.00
7:53 am 07:53 Mostly Cloudy 43 6.1 37 2.8 80 80 ESE 10 17 29.83 1010 10 16 0.00 0.00
8:53 am 08:53 Partly Cloudy 46 7.8 37 2.8 71 71 E 15 24 29.82 1010 10 16 0.00 0.00
9:53 am 09:53 Partly Cloudy 47 8.3 38 3.3 71 71 E 8 13 29.81 1010 10 16 0.00 0.00
10:05 am 10:05 Mostly Cloudy 49 9.4 38 3.3 66 66 ENE 8 13 29.76 1008 10 16 0.00 0.00
10:40 am 10:40 Partly Cloudy 49 9.4 39 3.9 69 69 NNE 10 17 29.75 1007 10 16 0.00 0.00
10:53 am 10:53 Mostly Cloudy 49 9.4 38 3.3 66 66 N 9 15 29.81 1010 10 16 0.00 0.00
11:12 am 11:12 Mostly Cloudy 49 9.4 37 2.8 64 64 VRB 7 11 29.76 1008 10 16 0.00 0.00
11:53 am 11:53 Cloudy 50 10 40 4.4 68 68 NNE 16 26 29.80 1009 10 16 0.00 0.00
12:25 pm 12:25 Cloudy 47 8.3 39 3.9 74 74 NE 14 22 29.77 1008 10 16 0.00 0.00
12:53 pm 12:53 Cloudy 46 7.8 40 4.4 79 79 ENE 17 28 29.83 1010 10 16 0.00 0.00
1:05 pm 13:05 Cloudy 46 7.8 40 4.4 79 79 NE 17 28 29.79 1009 10 16 0.00 0.00
1:41 pm 13:41 Cloudy with Light Rain 46 7.8 41 5 83 83 ENE 14 22 29.79 1009 10 16 0.00 0.03
1:49 pm 13:49 Cloudy with Light Rain 45 7 41 5 87 87 ENE 16 26 29.80 1009 10 16 0.00 0.03
1:53 pm 13:53 Cloudy with Light Rain 45 7.2 41 5 86 86 ENE 15 24 29.84 1011 10 16 0.00 0.03
2:53 pm 14:53 Cloudy 47 8.3 39 3.9 74 74 NE 17 28 29.83 1010 10 16 0.00 0.03
3:53 pm 15:53 Cloudy 46 7.8 38 3.3 73 73 ENE 21 33 29.85 1011 10 16 0.00 0.00
4:53 pm 16:53 Cloudy with Light Rain 43 6.1 41 5 93 93 NE 21 33 29.88 1012 8 13 0.00 0.03
5:32 pm 17:32 Cloudy with Light Rain 42 5.6 40 4.4 92 92 NE 18 30 29.85 1011 6 10 0.02 0.51
5:53 pm 17:53 Cloudy with Light Rain 43 6.1 42 5.6 97 97 ENE 15 24 29.88 1012 9 14 0.04 1.02
6:04 pm 18:04 Cloudy with Light Rain 43 6.1 42 5.6 97 97 NE 16 26 29.84 1011 10 16 0.00 0.03
6:32 pm 18:32 Cloudy 43 6.1 41 5 93 93 ENE 15 24 29.84 1011 10 16 0.00 0.03
6:41 pm 18:41 Cloudy with Light Rain 43 6.1 41 5 93 93 NE 17 28 29.84 1011 10 16 0.00 0.03
6:53 pm 18:53 Cloudy with Light Rain 42 5.6 41 5 96 96 ENE 20 31 29.88 1012 10 16 0.00 0.03
7:32 pm 19:32 Cloudy with Light Rain 42 5.6 41 5 96 96 NE 16 26 29.86 1011 10 16 0.00 0.03
7:53 pm 19:53 Cloudy 42 5.6 41 5 96 96 ENE 15 24 29.88 1012 10 16 0.00 0.03
8:32 pm 20:32 Cloudy 42 5.6 41 5 96 96 NE 15 24 29.87 1011 10 16 0.00 0.00
8:46 pm 20:46 Cloudy 42 5.6 41 5 96 96 ENE 15 24 29.88 1012 10 16 0.00 0.00
8:53 pm 20:53 Cloudy with Light Rain 42 5.6 41 5 96 96 NE 14 22 29.89 1012 10 16 0.00 0.03
9:02 pm 21:02 Cloudy with Light Rain 41 5 41 5 100 100 NE 15 24 29.89 1012 10 16 0.00 0.03
9:53 pm 21:53 Cloudy with Light Rain 41 5 41 5 100 100 NE 17 28 29.92 1013 10 16 0.01 0.25
10:53 pm 22:53 Cloudy with Light Rain 41 5 41 5 100 100 ENE 17 28 29.93 1014 10 16 0.01 0.25
11:53 pm 23:53 Cloudy with Light Rain 40 4.4 40 4.4 100 100 ENE 16 26 29.95 1014 7 11 0.00 0.03

Powered by AerisWeather